#timestamp,LO_Frequency,Hit 
1501120815.4,286047006.0,N
1501120835.3,286047003.6,N
1501120855.1,286047004.7,N
1501120875.8,286047003.4,N
1501120895.7,286047007.4,N
1501120915.5,286047011.7,N
1501120935.3,286047007.8,N
1501120955.2,286047005.4,N
1501120975.9,286047006.5,N
1501120995.7,286047006.0,N
1501121015.5,286047006.8,N
1501121035.4,286047004.3,N
1501121055.2,286047005.6,N
1501121075.0,286047005.0,N
1501121075.9,286047005.0,N
1501121095.8,286047004.9,N
1501121115.6,286047003.4,N
1501121135.4,286047006.3,N
1501121155.3,286047007.6,N
1501121175.1,286047003.5,N
1501121176.0,286047003.5,N
1501121195.8,286047002.9,N
1501121215.7,286047004.5,N
1501121235.5,286047003.2,N
1501121255.3,286047005.8,N
1501121275.2,286047004.4,N
1501121295.9,286047001.3,N
1501121315.7,286047003.4,N
1501121335.5,286047003.8,N
1501121355.4,286047001.9,N
1501121375.2,286047000.2,N
1501121395.0,286047003.7,N
1501121395.9,286047003.7,N
1501121415.8,286047003.0,N
1501121435.6,286047004.0,N
1501121455.4,286047003.9,N
1501121475.3,286047004.7,N
1501121495.1,286047005.8,N
1501121496.0,286047005.8,N
1501121515.8,286047007.6,N
1501121535.7,286047010.3,N
1501121555.5,286047009.5,N
1501121575.3,286047010.2,N
1501121595.2,286047011.0,N
1501121615.9,286047009.6,N
1501121635.7,286047006.2,N
1501121655.5,286047006.9,N
1501121675.4,286047007.5,N
1501121695.2,286047008.7,N
1501121715.0,286047005.0,N
1501121715.9,286047005.0,N
1501121735.8,286047009.8,N
1501121755.6,286047008.2,N
1501121775.4,286047007.3,N
1501121795.3,286047005.0,N
1501121815.1,286047006.1,N
1501121816.0,286047006.1,N
1501121835.8,286047006.5,N
1501121855.7,286047009.6,N
1501121875.5,286047008.5,N
1501121895.3,286047003.9,N
1501121915.1,286047000.0,N
1501121935.9,286047001.2,N
1501121955.7,286046997.4,N
1501121975.5,286046997.8,N
1501121995.4,286046992.8,N
1501122015.2,286046989.9,N
1501122035.0,286046991.0,N
1501122035.9,286046991.0,N
1501122055.8,286046992.3,N
1501122075.6,286046990.4,N
1501122095.4,286046987.6,N
1501122115.3,286046985.5,N
1501122135.1,286046987.0,N
1501122136.0,286046987.0,N
1501122155.8,286046985.6,N
1501122175.7,286046985.6,N
1501122195.5,286046987.8,N
1501122215.3,286046984.3,N
1501122235.1,286046984.5,N
1501122255.9,286046984.3,N
1501122275.7,286046985.2,N
1501122295.5,286046983.0,N
1501122315.4,286046983.0,N
1501122335.2,286046981.8,N
1501122355.0,286046981.9,N
1501122355.9,286046981.9,N
1501122375.8,286046982.0,N
1501122395.6,286046975.9,N
1501122415.4,286046975.7,N
1501122435.3,286046974.7,N
1501122455.1,286046973.5,N
1501122456.0,286046973.5,N
1501122475.8,286046974.9,N
1501122495.7,286046977.0,N
1501122515.5,286046977.1,N
1501122535.3,286046976.8,N
1501122555.1,286046976.7,N
1501122575.9,286046981.3,N
1501122595.7,286046986.5,N
1501122615.5,286046989.5,N
1501122635.4,286046992.8,N
1501122655.2,286046996.2,N
1501122675.0,286046996.9,N
1501122675.9,286046996.9,N
1501122695.8,286046997.9,N
1501122715.6,286046999.6,N
1501122735.4,286046999.5,N
1501122755.3,286047001.0,N
1501122775.1,286047002.4,N
1501122776.0,286047002.4,N
1501122795.8,286047001.6,N
1501122815.7,286047004.0,N
1501122835.5,286047007.1,N
1501122855.3,286047006.7,N
1501122875.1,286047006.4,N
1501122895.9,286047007.6,N
1501122915.7,286047004.6,N
1501122935.5,286047007.6,N
1501122955.4,286047007.4,N
1501122975.2,286047004.9,N
1501122995.0,286047005.3,N
1501122995.9,286047005.3,N
1501123015.8,286047005.9,N
1501123035.6,286047005.9,N
1501123055.4,286047001.3,N
1501123075.3,286047002.4,N
1501123095.1,286047000.4,N
1501123096.0,286047000.4,N
1501123115.8,286046999.8,N
1501123135.6,286047000.2,N
1501123155.5,286047003.4,N
1501123175.3,286047007.4,N
1501123195.1,286047006.9,N
1501123215.9,286047010.0,N
1501123235.7,286047009.3,N
1501123255.5,286047011.5,N
1501123275.4,286047009.9,N
1501123295.2,286047012.7,N
1501123315.0,286047009.7,N
1501123315.9,286047009.7,N
1501123335.8,286047009.3,N
1501123355.6,286047013.3,N
1501123375.4,286047013.5,N
1501123395.2,286047011.6,N
1501123415.1,286047011.2,N
1501123416.0,286047011.2,N
1501123435.8,286047009.3,N
1501123455.6,286047008.2,N
1501123475.5,286047009.0,N
1501123495.3,286047008.1,N
1501123515.1,286047008.7,N
1501123535.9,286047006.8,N
1501123555.7,286047006.6,N
1501123575.5,286047006.6,N
1501123595.4,286047008.0,N
1501123615.2,286047008.5,N
1501123635.0,286047008.9,N
1501123635.9,286047008.9,N
1501123655.8,286047009.1,N
1501123675.6,286047007.9,N
1501123695.4,286047008.8,N
1501123715.2,286047004.7,N
1501123735.1,286047002.9,N
1501123736.0,286047002.9,N
1501123755.8,286047006.0,N
1501123775.6,286047005.0,N
1501123795.5,286047007.1,N
1501123815.3,286047008.5,N
1501123835.1,286047009.8,N
1501123855.9,286047012.3,N
1501123875.7,286047008.0,N
1501123895.5,286047008.9,N
1501123915.4,286047004.9,N
1501123935.2,286047006.6,N
1501123955.0,286047005.4,N
1501123955.9,286047005.4,N
1501123975.8,286047003.6,N
1501123995.6,286047001.4,N
1501124015.4,286047000.2,N
1501124035.3,286047000.0,N
1501124055.1,286047002.5,N
1501124056.0,286047002.5,N
1501124075.8,286047004.0,N
1501124095.7,286047003.0,N
1501124115.5,286047007.0,N
1501124135.3,286047004.9,N
1501124155.1,286047006.4,N
1501124175.9,286047005.2,N
1501124195.7,286047006.7,N
1501124215.5,286047006.2,N
1501124235.4,286047005.5,N
1501124255.2,286047001.7,N
1501124275.0,286047000.2,N
1501124275.9,286047000.2,N
1501124295.8,286047001.2,N
1501124315.6,286046998.2,N
1501124335.4,286046997.1,N
1501124355.3,286046996.0,N
1501124375.1,286046994.2,N
1501124376.0,286046994.2,N
1501124395.8,286046994.2,N
